[[{"header":{"parameterUnit":"m.s-1","parameterCategory":1,"la1":30.2991,"la2":30.254,"lo1":-89.0895,"lo2":-89.0444,"dy":0.0017,"dx":0.0017,"nx":28,"ny":28,"refTime":"2024-05-19T09:00:00:Z","depth":0,"parameterNumber":2,"parameterNumberName":"U-component_of_WINDS"},"data":[0,0,0,0,0,0,0,0,0,0,0,0,0,0,0,0,0,0,0,0,0,0,0,0,0,0,0,0,0,0,0,0,0,0,0,0,0,0,0,0,0,0,0,0,0,0,0,0,0,0,0,0,0,0,0,0,0,0,-0.5911,-0.591,0,-0.576,-0.5759,-0.5757,-0.569,-0.569,-0.569,-0.569,-0.5528,-0.5524,-0.552,0,0,0,0,0,0,0,0,0,0,0,0,0,-0.6135,-0.6131,-0.5912,-0.591,-0.5908,-0.5761,-0.5759,-0.5756,-0.569,-0.569,-0.569,-0.569,-0.553,-0.5525,-0.5519,0,0,0,0,0,0,0,0,0,0,0,0,0,-0.6016,-0.613,-0.5912,-0.5857,-0.585,-0.5761,-0.5758,-0.5756,-0.5689,-0.569,-0.569,-0.569,-0.5532,-0.5525,-0.5518,-0.547,0,0,-0.5498,-0.5495,0,0,0,0,0,0,0,0,-0.6023,-0.6008,-0.5867,-0.586,-0.5853,-0.5744,-0.5778,-0.566,-0.5689,-0.575,-0.569,-0.5691,-0.56,-0.5587,-0.5558,-0.5463,-0.5456,-0.5497,-0.5493,-0.549,-0.5488,0,0,0,0,0,0,0,-0.6031,-0.6014,-0.5851,-0.5865,-0.5856,-0.5837,-0.5821,-0.5755,-0.5675,-0.5745,-0.574,-0.5723,-0.5596,-0.5565,-0.5554,-0.5454,-0.5497,-0.5491,-0.5487,-0.5485,-0.531,-0.531,0,0,0,0,0,0,-0.6049,-0.6021,-0.5856,-0.5847,-0.5941,-0.5833,-0.5815,-0.5779,-0.5675,-0.566,-0.5723,-0.5721,-0.5576,-0.5562,-0.5548,-0.5484,-0.549,-0.5484,-0.548,-0.5311,-0.531,-0.5309,0,0,0,0,0,0,-0.6055,-0.6035,-0.5862,-0.5933,-0.5909,-0.5829,-0.5789,-0.5776,-0.5744,-0.5659,-0.5643,-0.5707,-0.5576,-0.5557,-0.549,-0.5477,-0.5481,-0.5475,-0.5311,-0.5311,-0.531,-0.5357,0,0,0,0,0,0,-0.6061,-0.6038,-0.602,-0.5933,-0.5906,-0.581,-0.5788,-0.5772,-0.5734,-0.5729,-0.5639,-0.5625,-0.5575,-0.5501,-0.5484,-0.5468,-0.5469,-0.5312,-0.5311,-0.531,-0.5356,-0.5357,-0.5359,0,0,0,0,0,-0.6069,-0.6038,-0.602,-0.6,-0.5883,-0.5809,-0.5793,-0.5739,-0.5733,-0.5714,-0.5659,-0.5627,-0.5482,-0.5495,-0.5475,-0.5457,-0.5313,-0.5311,-0.531,-0.5355,-0.5357,-0.5359,0,0,0,0,0,0,-0.6123,-0.6026,-0.6004,-0.5944,-0.5886,-0.5798,-0.5772,-0.5743,-0.5683,-0.568,-0.5613,-0.5593,-0.5532,-0.5487,-0.5503,-0.5404,-0.5394,-0.5389,-0.5436,-0.5437,-0.5438,-0.5449,-0.5464,0,0,0,0,0,-0.6129,-0.608,-0.5996,-0.5951,-0.5923,-0.5853,-0.5819,-0.5782,-0.5718,-0.5692,-0.5632,-0.5569,-0.5509,-0.547,-0.541,-0.535,-0.5328,-0.5327,-0.5329,-0.5331,-0.5326,-0.5289,-0.5288,-0.5305,-0.5305,-0.5305,0,0,-0.6138,-0.6079,-0.6051,-0.596,-0.5911,-0.5859,-0.5832,-0.5779,-0.5739,-0.5683,-0.5617,-0.557,-0.5495,-0.5431,-0.54,-0.5393,-0.5317,-0.5329,-0.5331,-0.5325,-0.5288,-0.5286,-0.5285,-0.5304,-0.5304,-0.5305,0,0,-0.6129,-0.608,-0.6037,-0.5988,-0.5915,-0.5868,-0.5858,-0.5775,-0.5743,-0.5676,-0.5633,-0.5583,-0.5482,-0.543,-0.539,-0.5362,-0.533,-0.5344,-0.5352,-0.5317,-0.5315,-0.5314,-0.5302,-0.5299,-0.5341,-0.5341,-0.5341,0,-0.6149,-0.6072,-0.6018,-0.5967,-0.5927,-0.5877,-0.5831,-0.5786,-0.5695,-0.5668,-0.5662,-0.5533,-0.5479,-0.5402,-0.5395,-0.5365,-0.535,-0.5354,-0.5321,-0.5318,-0.5316,-0.5304,-0.53,-0.5343,-0.5343,-0.5342,-0.5342,0,-0.61,-0.6047,-0.6021,-0.5938,-0.5895,-0.5847,-0.5783,-0.5746,-0.5713,-0.5667,-0.5599,-0.5532,-0.5458,-0.5437,-0.5403,-0.5354,-0.5352,-0.5334,-0.5322,-0.5317,-0.5305,-0.53,-0.5346,-0.5345,-0.5345,-0.5344,0,0,-0.6119,-0.6008,-0.5999,-0.596,-0.5876,-0.5833,-0.5782,-0.5711,-0.568,-0.562,-0.5574,-0.5489,-0.5472,-0.5428,-0.5387,-0.5357,-0.5338,-0.5342,-0.5339,-0.5343,-0.5278,-0.5291,-0.5287,-0.5317,-0.5316,-0.5315,-0.5284,0,-0.6098,-0.6007,-0.5957,-0.5886,-0.5836,-0.5787,-0.5742,-0.5684,-0.564,-0.5589,-0.5538,-0.5479,-0.5462,-0.5435,-0.5403,-0.5347,-0.5323,-0.5349,-0.5271,-0.5269,-0.529,-0.5281,-0.5294,-0.5268,-0.5279,-0.5278,-0.5277,0,-0.606,-0.6003,-0.5929,-0.585,-0.5826,-0.5788,-0.5719,-0.5671,-0.5604,-0.5573,-0.5524,-0.5485,-0.5426,-0.5421,-0.5339,-0.5357,-0.5322,-0.529,-0.5288,-0.5277,-0.5272,-0.5269,-0.5259,-0.5255,-0.527,-0.527,-0.5271,0,-0.608,-0.5985,-0.5927,-0.5896,-0.5803,-0.5777,-0.5736,-0.5669,-0.563,-0.5569,-0.5543,-0.5475,-0.5438,-0.5385,-0.5327,-0.5329,-0.525,-0.524,-0.5221,-0.5223,-0.5206,-0.5207,-0.5189,-0.5186,-0.5186,-0.5186,-0.5186,0,-0.6061,-0.6016,-0.5935,-0.59,-0.5848,-0.579,-0.574,-0.5695,-0.5636,-0.5589,-0.5542,-0.5499,-0.5426,-0.5373,-0.5327,-0.5266,-0.5249,-0.5221,-0.5209,-0.5225,-0.5228,-0.52,-0.5199,-0.5185,-0.5185,-0.5186,-0.5186,0,-0.6074,-0.6018,-0.5952,-0.5871,-0.5849,-0.5814,-0.5743,-0.5705,-0.5659,-0.5601,-0.5583,-0.5509,-0.5444,-0.5383,-0.5295,-0.5264,-0.5202,-0.5187,-0.5225,-0.5218,-0.5203,-0.5205,-0.5164,-0.5155,-0.5161,-0.5161,-0.5161,0,-0.6065,-0.603,-0.5945,-0.5912,-0.5873,-0.582,-0.578,-0.5721,-0.5681,-0.5602,-0.5574,-0.5506,-0.5449,-0.5347,-0.5283,-0.5216,-0.5198,-0.5189,-0.5187,-0.5204,-0.5196,-0.5198,-0.5194,-0.5189,-0.519,-0.519,-0.519,0,-0.6053,-0.6028,-0.5974,-0.5911,-0.5866,-0.5812,-0.5757,-0.5731,-0.5661,-0.5618,-0.5553,-0.5509,-0.542,-0.5352,-0.5278,-0.5233,-0.5199,-0.5191,-0.5183,-0.5198,-0.5221,-0.5207,-0.5227,-0.5192,-0.5192,-0.5192,-0.5192,-0.5192,-0.6053,-0.602,-0.5956,-0.5897,-0.585,-0.58,-0.5761,-0.571,-0.5656,-0.5581,-0.5549,-0.5482,-0.5414,-0.5311,-0.5266,-0.5212,-0.5203,-0.5192,-0.5189,-0.5186,-0.5189,-0.5232,-0.5198,-0.5198,-0.5197,-0.5197,-0.5197,0,-0.6039,-0.5996,-0.5943,-0.5868,-0.5821,-0.5797,-0.5734,-0.5696,-0.5639,-0.558,-0.5525,-0.5449,-0.5383,-0.5316,-0.5246,-0.5215,-0.5197,-0.5198,-0.5199,-0.5189,-0.5201,-0.5215,-0.5213,-0.5213,-0.5213,-0.5213,-0.5213,-0.5213,-0.6026,-0.5968,-0.5935,-0.5852,-0.5808,-0.5745,-0.5711,-0.5663,-0.5616,-0.5534,-0.548,-0.5438,-0.5374,-0.53,-0.5237,-0.5219,-0.5194,-0.52,-0.5177,-0.5189,-0.5188,-0.5187,-0.5199,-0.5195,-0.5195,-0.5168,-0.5168,-0.5168]},{"header":{"parameterUnit":"m.s-1","parameterCategory":1,"la1":30.2991,"la2":30.254,"lo1":-89.0895,"lo2":-89.0444,"dy":0.0017,"dx":0.0017,"nx":28,"ny":28,"refTime":"2024-05-19T09:00:00:Z","depth":0,"parameterNumber":3,"parameterNumberName":"V-component_of_WINDS"},"data":[0,0,0,0,0,0,0,0,0,0,0,0,0,0,0,0,0,0,0,0,0,0,0,0,0,0,0,0,0,0,0,0,0,0,0,0,0,0,0,0,0,0,0,0,0,0,0,0,0,0,0,0,0,0,0,0,0,0,-0.2071,-0.2071,0,-0.2087,-0.2088,-0.2088,-0.2107,-0.2108,-0.2108,-0.2108,-0.2125,-0.2125,-0.2126,0,0,0,0,0,0,0,0,0,0,0,0,0,-0.2058,-0.2058,-0.2071,-0.2071,-0.2072,-0.2087,-0.2088,-0.2088,-0.2107,-0.2108,-0.2108,-0.2108,-0.2125,-0.2125,-0.2126,0,0,0,0,0,0,0,0,0,0,0,0,0,-0.2068,-0.2058,-0.2071,-0.2083,-0.2084,-0.2087,-0.2088,-0.2088,-0.2107,-0.2108,-0.2108,-0.2108,-0.2125,-0.2125,-0.2126,-0.2118,0,0,-0.2127,-0.2127,0,0,0,0,0,0,0,0,-0.2067,-0.2068,-0.2081,-0.2082,-0.2084,-0.2096,-0.2089,-0.2098,-0.2107,-0.2099,-0.2108,-0.2109,-0.2115,-0.2116,-0.2118,-0.2119,-0.212,-0.2127,-0.2127,-0.2127,-0.2127,0,0,0,0,0,0,0,-0.2066,-0.2067,-0.2078,-0.2081,-0.2083,-0.2088,-0.209,-0.2091,-0.2104,-0.2099,-0.2101,-0.2102,-0.2116,-0.2118,-0.2119,-0.212,-0.2127,-0.2127,-0.2127,-0.2127,-0.2115,-0.2115,0,0,0,0,0,0,-0.2064,-0.2067,-0.2077,-0.2078,-0.2076,-0.2088,-0.209,-0.2091,-0.2104,-0.2107,-0.2102,-0.2103,-0.2117,-0.2119,-0.212,-0.2111,-0.2127,-0.2127,-0.2127,-0.2116,-0.2115,-0.2115,0,0,0,0,0,0,-0.2063,-0.2064,-0.2076,-0.2073,-0.2075,-0.2088,-0.2089,-0.2092,-0.2094,-0.2106,-0.2109,-0.2102,-0.2118,-0.2119,-0.2118,-0.2112,-0.2127,-0.2127,-0.2116,-0.2116,-0.2115,-0.2095,0,0,0,0,0,0,-0.2063,-0.2064,-0.2061,-0.2073,-0.2075,-0.2075,-0.2089,-0.2091,-0.2094,-0.2096,-0.2106,-0.2109,-0.2118,-0.2118,-0.2119,-0.2113,-0.2128,-0.2117,-0.2116,-0.2115,-0.2096,-0.2094,-0.2091,0,0,0,0,0,-0.2062,-0.2055,-0.2061,-0.2062,-0.2071,-0.2074,-0.2076,-0.2086,-0.2093,-0.2091,-0.2099,-0.2108,-0.2113,-0.2118,-0.2119,-0.2113,-0.2117,-0.2116,-0.2115,-0.2097,-0.2094,-0.2091,0,0,0,0,0,0,-0.2043,-0.2057,-0.2064,-0.206,-0.2066,-0.2078,-0.2074,-0.2083,-0.2087,-0.2088,-0.2102,-0.2104,-0.2102,-0.2107,-0.2112,-0.2106,-0.2117,-0.2116,-0.2102,-0.21,-0.2097,-0.2096,-0.2128,0,0,0,0,0,-0.2038,-0.2039,-0.2051,-0.2047,-0.205,-0.2061,-0.2063,-0.2071,-0.2078,-0.208,-0.2088,-0.2095,-0.2097,-0.2099,-0.2102,-0.2097,-0.21,-0.2094,-0.2091,-0.2089,-0.2088,-0.2086,-0.2083,-0.2111,-0.2111,-0.2111,0,0,-0.2028,-0.2036,-0.2036,-0.2043,-0.2049,-0.2049,-0.2063,-0.2064,-0.2064,-0.208,-0.208,-0.2086,-0.2094,-0.2091,-0.209,-0.2095,-0.2081,-0.2088,-0.2086,-0.2086,-0.2084,-0.2082,-0.2079,-0.2111,-0.2111,-0.2111,0,0,-0.2011,-0.2017,-0.2014,-0.2019,-0.2027,-0.2035,-0.2034,-0.2045,-0.2049,-0.2049,-0.2061,-0.2062,-0.2067,-0.2072,-0.2075,-0.206,-0.2069,-0.2061,-0.2048,-0.2045,-0.2043,-0.2041,-0.2035,-0.2033,-0.206,-0.206,-0.2059,0,-0.1998,-0.1999,-0.2011,-0.201,-0.2013,-0.2028,-0.2025,-0.2029,-0.2038,-0.2039,-0.2046,-0.2052,-0.2058,-0.2056,-0.2052,-0.2055,-0.2054,-0.2059,-0.2042,-0.204,-0.2039,-0.2033,-0.2031,-0.2058,-0.2059,-0.2059,-0.2059,0,-0.1982,-0.1983,-0.1979,-0.1987,-0.199,-0.1988,-0.2,-0.2001,-0.2009,-0.2016,-0.2015,-0.2024,-0.2029,-0.2029,-0.2037,-0.2028,-0.2031,-0.204,-0.205,-0.2035,-0.203,-0.2028,-0.2057,-0.2057,-0.2058,-0.2058,0,0,-0.1952,-0.1967,-0.1965,-0.1969,-0.1979,-0.198,-0.1979,-0.1983,-0.1984,-0.199,-0.1989,-0.1993,-0.2,-0.2004,-0.2012,-0.201,-0.1997,-0.2019,-0.2019,-0.2014,-0.1987,-0.198,-0.1978,-0.2003,-0.2003,-0.2003,-0.1986,0,-0.1936,-0.1934,-0.1945,-0.1941,-0.1941,-0.1955,-0.1954,-0.1961,-0.1968,-0.1969,-0.1977,-0.1979,-0.199,-0.1992,-0.1991,-0.1999,-0.1992,-0.2,-0.2002,-0.2002,-0.1999,-0.1975,-0.1968,-0.1952,-0.1985,-0.1984,-0.1984,0,-0.1916,-0.1921,-0.1916,-0.1926,-0.1927,-0.1926,-0.1931,-0.1933,-0.194,-0.1945,-0.1949,-0.1959,-0.1959,-0.1969,-0.1969,-0.1975,-0.1976,-0.1981,-0.198,-0.198,-0.1991,-0.1974,-0.1947,-0.1945,-0.1981,-0.1981,-0.1982,0,-0.1894,-0.1899,-0.1897,-0.1899,-0.1911,-0.191,-0.1915,-0.1923,-0.1925,-0.193,-0.1931,-0.1936,-0.1939,-0.1942,-0.1953,-0.196,-0.1951,-0.1963,-0.1956,-0.1955,-0.1952,-0.1952,-0.1925,-0.1955,-0.1955,-0.1955,-0.1955,0,-0.1874,-0.1871,-0.1887,-0.1885,-0.1882,-0.1895,-0.1891,-0.1897,-0.1904,-0.1904,-0.1917,-0.1917,-0.1932,-0.1934,-0.1942,-0.1941,-0.1942,-0.1946,-0.1948,-0.1944,-0.1944,-0.1945,-0.1946,-0.1954,-0.1954,-0.1954,-0.1955,0,-0.1848,-0.1859,-0.1857,-0.1869,-0.1872,-0.1868,-0.1878,-0.1878,-0.1886,-0.1886,-0.1886,-0.1899,-0.1902,-0.1913,-0.1918,-0.1924,-0.1919,-0.1924,-0.1917,-0.1918,-0.1909,-0.191,-0.1882,-0.1878,-0.1911,-0.191,-0.191,0,-0.1834,-0.1832,-0.1843,-0.1844,-0.1848,-0.185,-0.1852,-0.1865,-0.1866,-0.1875,-0.1873,-0.1876,-0.188,-0.1883,-0.1893,-0.1897,-0.1902,-0.1892,-0.1903,-0.1899,-0.1901,-0.1901,-0.19,-0.1889,-0.1889,-0.1888,-0.1888,0,-0.1808,-0.1814,-0.1816,-0.1821,-0.1823,-0.1827,-0.1832,-0.1832,-0.1846,-0.1848,-0.185,-0.1853,-0.1858,-0.1862,-0.1868,-0.1873,-0.1883,-0.1885,-0.1883,-0.1879,-0.1874,-0.1876,-0.1909,-0.1885,-0.1885,-0.1886,-0.1886,-0.1886,-0.1788,-0.1786,-0.1793,-0.1796,-0.1801,-0.1805,-0.1805,-0.1813,-0.1815,-0.182,-0.1828,-0.1829,-0.1837,-0.1846,-0.1851,-0.1852,-0.1858,-0.1855,-0.1855,-0.1854,-0.1852,-0.1875,-0.1853,-0.1853,-0.1854,-0.1854,-0.1854,0,-0.1762,-0.1767,-0.1769,-0.1776,-0.1777,-0.1787,-0.1793,-0.1794,-0.1795,-0.1801,-0.1804,-0.1807,-0.181,-0.182,-0.1825,-0.1824,-0.1829,-0.1825,-0.1824,-0.1825,-0.1847,-0.1847,-0.1821,-0.1821,-0.1821,-0.1821,-0.1821,-0.1821,-0.1748,-0.1746,-0.1752,-0.1752,-0.1758,-0.1759,-0.1762,-0.1766,-0.1771,-0.1774,-0.1776,-0.1783,-0.1791,-0.1796,-0.1799,-0.1802,-0.1803,-0.1797,-0.1802,-0.1821,-0.1824,-0.1827,-0.1828,-0.1797,-0.1797,-0.178,-0.178,-0.178]}]]